Meteo Giornale » Osservazioni meteo Stati Uniti (USA) » Chickasha
ore: 16:15 - Osservazioni Meteo Chickasha
Lat. 35° 5' N Lon. 97° 57' W Alt. 351 metri s.l.m.
40 °C
Nuvoloso
Temp. 24 Ore
25 °C
41 °C
Sud/Sud-Est
18.5 Km/h
Dew point 14 °C
Umidità 21 %
Visibilità 10 Km
Il sole sorge alle ore 07:03
Il sole tramonta alle ore 20:00
| Data e Ora | Cielo e Fenomeni | T °C | DP °C | Um. % | Pres. hPa | Vis. km | Vento km/h | |
|---|---|---|---|---|---|---|---|---|
| Oggi h: 16:15 | Nuvoloso | 40 | 14 | 21 | 1014 | 10 | S/SE 18.5 | |
| Oggi h: 15:55 | Molto Nuvoloso | 40 | 14 | 21 | 1015 | 10 | SE 22.2 | |
| Oggi h: 15:35 | Nuvoloso | 40 | 14 | 21 | 1015 | 10 | S/SE 22.2 | |
| Oggi h: 15:15 | Nuvoloso | 41 | 14 | 20 | 1015 | 10 | S/SE 16.7 | |
| Oggi h: 14:55 | Nuvoloso | 40 | 15 | 23 | 1015 | 10 | SO 14.8 | |
| Oggi h: 14:35 | Nuvoloso | 39 | 15 | 24 | 1016 | 10 | S/SE 22.2 | |
| Oggi h: 14:15 | Nuvoloso | 39 | 15 | 24 | 1016 | 10 | S 18.5 | |
| Oggi h: 13:55 | Nuvoloso | 39 | 15 | 24 | 1016 | 10 | S 16.7 | |
| Oggi h: 13:35 | Nuvoloso | 39 | 15 | 24 | 1016 | 10 | S/SE 20.3 | |
| Oggi h: 13:15 | Nuvoloso | 39 | 15 | 24 | 1016 | 10 | S/SO 24 | |
| Oggi h: 12:55 | Molto Nuvoloso | 39 | 15 | 24 | 1017 | 10 | S 16.7 | |
| Oggi h: 12:35 | Sereno | 38 | 17 | 29 | 1017 | 10 | S 14.8 | |
| Oggi h: 12:15 | Sereno | 38 | 17 | 29 | 1017 | 10 | S 18.5 | |
| Oggi h: 11:55 | Sereno | 37 | 18 | 32 | 1017 | 10 | S/SO 18.5 | |
| Oggi h: 11:35 | Sereno | 37 | 19 | 35 | 1017 | 10 | S/SO 22.2 | |
| Oggi h: 11:15 | Sereno | 36 | 19 | 36 | 1017 | 10 | S 20.3 | |
| Oggi h: 10:55 | Sereno | 35 | 19 | 39 | 1017 | 10 | S 22.2 | |
| Oggi h: 10:35 | Sereno | 34 | 19 | 41 | 1017 | 10 | S/SO 22.2 | |
| Oggi h: 10:15 | Sereno | 34 | 19 | 41 | 1017 | 10 | S 20.3 | |
| Oggi h: 09:55 | Sereno | 33 | 19 | 43 | 1017 | 10 | S/SO 18.5 | |
| Oggi h: 09:35 | Sereno | 32 | 19 | 46 | 1018 | 10 | S/SO 16.7 | |
| Oggi h: 09:15 | Sereno | 31 | 19 | 48 | 1018 | 10 | S/SO 11.1 | |
| Oggi h: 08:55 | Sereno | 30 | 18 | 48 | 1018 | 10 | S/SO 9.3 | |
| Oggi h: 08:35 | Sereno | 29 | 18 | 51 | 1017 | 10 | N 5.5 | |
| Oggi h: 08:15 | Sereno | 27 | 17 | 54 | 1017 | 10 | N 5.5 | |
| Oggi h: 07:55 | Sereno | 26 | 17 | 57 | 1017 | 10 | S 7.4 | |
| Oggi h: 07:35 | Sereno | 26 | 16 | 54 | 1017 | 10 | S 9.3 | |
| Oggi h: 07:15 | Sereno | 25 | 15 | 53 | 1016 | 10 | S 7.4 | |
| Oggi h: 06:55 | Sereno | 25 | 15 | 53 | 1016 | 10 | N 0 | |
| Oggi h: 06:35 | Sereno | 26 | 15 | 50 | 1016 | 10 | N 0 | |
| Oggi h: 06:15 | Sereno | 26 | 15 | 50 | 1016 | 10 | S/SO 7.4 | |
| Oggi h: 05:55 | Sereno | 26 | 15 | 50 | 1016 | 10 | S 7.4 | |
| Oggi h: 05:35 | Sereno | 26 | 15 | 50 | 1015 | 10 | S 14.8 | |
| Oggi h: 05:15 | Sereno | 26 | 15 | 50 | 1015 | 10 | S 9.3 | |
| Oggi h: 04:55 | Sereno | 26 | 14 | 47 | 1015 | 10 | S 7.4 | |
| Oggi h: 04:35 | Sereno | 27 | 14 | 44 | 1015 | 10 | S 9.3 | |
| Oggi h: 04:15 | Sereno | 27 | 14 | 44 | 1015 | 10 | S 13 | |
| Oggi h: 03:55 | Sereno | 27 | 14 | 44 | 1015 | 10 | S/SE 13 | |
| Oggi h: 03:35 | Sereno | 27 | 14 | 44 | 1015 | 10 | S/SE 14.8 | |
| Oggi h: 03:15 | Sereno | 28 | 14 | 42 | 1015 | 10 | S/SE 11.1 | |
| Oggi h: 02:55 | Sereno | 28 | 14 | 42 | 1015 | 10 | S/SE 14.8 | |
| Oggi h: 02:35 | Sereno | 28 | 14 | 42 | 1015 | 10 | S/SE 16.7 | |
| Oggi h: 02:15 | Sereno | 28 | 14 | 42 | 1015 | 10 | S 14.8 | |
| Oggi h: 01:50 | Sereno | 29 | 14 | 39 | 1015 | 10 | S/SE 16.7 | |
| Oggi h: 01:35 | Sereno | 29 | 14 | 39 | 1015 | 10 | S 16.7 | |
| Oggi h: 01:15 | Sereno | 29 | 14 | 39 | 1015 | 10 | S 18.5 | |
| Oggi h: 00:55 | Sereno | 29 | 14 | 39 | 1015 | 10 | S/SE 16.7 | |
| Oggi h: 00:35 | Sereno | 30 | 14 | 37 | 1014 | 10 | S/SE 18.5 | |
| Oggi h: 00:15 | Sereno | 30 | 14 | 37 | 1014 | 10 | S/SE 16.7 | |
| Ieri h: 23:55 | Sereno | 30 | 14 | 37 | 1014 | 10 | S 18.5 | |
| Ieri h: 23:35 | Sereno | 31 | 14 | 35 | 1014 | 10 | S 20.3 | |
| Ieri h: 23:15 | Sereno | 31 | 14 | 35 | 1014 | 10 | S/SE 20.3 | |
| Ieri h: 22:55 | Sereno | 31 | 14 | 35 | 1014 | 10 | S/SE 20.3 | |
| Ieri h: 22:35 | Sereno | 31 | 14 | 35 | 1014 | 10 | S/SE 20.3 | |
| Ieri h: 22:15 | Sereno | 32 | 14 | 33 | 1014 | 10 | S/SE 18.5 | |
| Ieri h: 21:55 | Sereno | 32 | 14 | 33 | 1014 | 10 | S/SE 22.2 | |
| Ieri h: 21:35 | Sereno | 33 | 14 | 31 | 1013 | 10 | S/SE 20.3 | |
| Ieri h: 21:15 | Sereno | 33 | 14 | 31 | 1013 | 10 | S/SE 18.5 | |
| Ieri h: 20:55 | Sereno | 34 | 14 | 30 | 1012 | 10 | S/SE 22.2 | |
| Ieri h: 20:35 | Sereno | 34 | 14 | 30 | 1012 | 10 | S/SE 16.7 | |
| Ieri h: 20:15 | Sereno | 35 | 14 | 28 | 1012 | 10 | S/SE 14.8 | |
| Ieri h: 19:55 | Sereno | 36 | 14 | 26 | 1012 | 10 | S/SE 18.5 | |
| Ieri h: 19:35 | Sereno | 37 | 13 | 23 | 1012 | 10 | S/SE 16.7 | |
| Ieri h: 19:15 | Sereno | 38 | 14 | 24 | 1012 | 10 | S 16.7 | |
| Ieri h: 18:55 | Sereno | 38 | 14 | 24 | 1012 | 10 | S/SE 24 | |
| Ieri h: 18:35 | Sereno | 39 | 14 | 22 | 1012 | 10 | S 16.7 | |
| Ieri h: 18:15 | Sereno | 39 | 14 | 22 | 1012 | 10 | S 24 | |
| Ieri h: 17:55 | Sereno | 40 | 14 | 21 | 1012 | 10 | S 18.5 | |
| Ieri h: 17:35 | Sereno | 40 | 14 | 21 | 1012 | 10 | S 22.2 | |
| Ieri h: 17:15 | Sereno | 40 | 14 | 21 | 1012 | 10 | S 16.7 | |
| Ieri h: 16:55 | Sereno | 40 | 15 | 23 | 1012 | 10 | S/SE 20.3 | |
| Ieri h: 16:35 | Sereno | 40 | 15 | 23 | 1012 | 10 | S 27.8 | |



